Weather in Singen

Germany     47°45′51″N   8°51′00″E
temp.,
°C
wind,
m/s
gust,
m/s
humid.,
%
clouds,
%
prec.,
mm/h
press.,
hPa
HPBL,
m
27 october, wed
wed2723:00+6nne119393 0.0 102810
02:00+5nne119578 0.0 102710
05:00+5nne1196100 0.0 102710
08:00+4ne11965 0.0 102810
11:00+9ne127931 0.0 1027297
14:00+13ene246029 0.0 1024712
17:00+13ne24715 0.0 1022109
20:00+7n22928 0.0 102421
28 october, thu
thu2823:00+6n22945 0.0 102515
02:00+4nne11951 0.0 102410
05:00+4ene00961 0.0 102310
08:00+3s00975 0.0 102310
11:00+9s11800 0.0 1022217
14:00+14sw12595 0.0 1019389
17:00+13s017151 0.0 101810
20:00+7nne11885 0.0 101810
29 october, fri
fri2923:00+6nne11900 0.0 101810
02:00+5ne11920 0.0 101710
05:00+4ne00925 0.0 101610
08:00+3nne009274 0.0 101610
11:00+9ssw117215 0.0 1015210
14:00+13sw1259100 0.0 1013418
17:00+12e0071100 0.0 101210
20:00+8nnw1181100 0.0 101410
30 october, sat
sat3023:00+7nne0085100 0.0 101510
02:00+6wnw0090100 0.0 101610
05:00+5n00915 0.0 101710
08:00+5ne1188100 0.0 101710
11:00+10se1167100 0.0 1017196
14:00+13ene1256100 0.0 1014394
17:00+12ne2270100 0.0 101328
20:00+9nne2283100 0.0 101319
31 october, sun
sun3123:00+8nne1185100 0.0 101210
02:00+8s1184100 0.0 101111
04:00+8ne1183100 0.1 101015
07:00+8s1287100 0.6 101041
10:00+8w1195100 0.9 101083
13:00+10wsw1284100 1.0 1008198
16:00+10wsw1188100 0.0 100787
19:00+9ssw1290100 0.1 100735